Location: Kaltenbach
(49.2000°N, 7.7500°E)
Time: 09:12:18
(UTC+00:00)

CZ-4C R/B - Pass Details

Date: 24 January 2020
Orbit: 644 x 1357 km, 63.4° (Epoch: 16 February)

Event Time Altitude Azimuth Distance (km) Brightness Sun altitude
Rises 17:08:29 0° 315° (NW) 3,847 6.0 -9.3°
Reaches altitude 10° 17:11:04 10° 310° (NW) 2,987 5.5 -9.7°
Maximum altitude 17:17:56 46° 240° (WSW) 1,602 4.2 -10.8°
Drops below altitude 10° 17:25:40 10° 170° (S) 3,354 5.4 -12.0°
Sets 17:28:45 0° 165° (SSE) 4,357 5.9 -12.5°
